Time,TemperatureF,DewpointF,PressureIn,WindDirection,WindDirectionDegrees,WindSpeedMPH,WindSpeedGustMPH,Humidity,HourlyPrecipIn,Conditions,Clouds,dailyrainin,SoftwareType,DateUTC
2013-01-23 00:03:00,20.7,7.4,30.34,ESE,113,0.9,2.5,56,0.00,,,0.00,WUHU216HW,2013-01-23 06:03:00,
2013-01-23 00:08:00,20.7,7.7,30.34,SE,135,1.1,2.2,57,0.00,,,0.00,WUHU216HW,2013-01-23 06:08:00,
2013-01-23 00:13:00,20.5,7.6,30.34,SE,135,0.9,2.0,57,0.00,,,0.00,WUHU216HW,2013-01-23 06:13:00,
2013-01-23 00:18:00,20.5,7.6,30.34,SE,135,1.1,2.0,57,0.00,,,0.00,WUHU216HW,2013-01-23 06:18:00,
2013-01-23 00:23:00,20.5,7.6,30.34,ESE,113,0.0,2.0,57,0.00,,,0.00,WUHU216HW,2013-01-23 06:23:00,
2013-01-23 00:28:00,20.5,7.6,30.34,East,90,0.0,1.3,57,0.00,,,0.00,WUHU216HW,2013-01-23 06:28:00,
2013-01-23 00:33:00,20.5,7.6,30.34,ESE,113,0.4,1.3,57,0.00,,,0.00,WUHU216HW,2013-01-23 06:33:00,
2013-01-23 00:38:00,20.5,7.6,30.34,ESE,113,0.2,1.3,57,0.00,,,0.00,WUHU216HW,2013-01-23 06:38:00,
2013-01-23 00:43:00,20.5,7.6,30.35,East,90,0.0,1.3,57,0.00,,,0.00,WUHU216HW,2013-01-23 06:43:00,
2013-01-23 00:48:00,20.3,7.4,30.34,East,90,0.9,1.3,57,0.00,,,0.00,WUHU216HW,2013-01-23 06:48:00,
2013-01-23 00:53:00,20.3,7.8,30.34,East,90,0.0,0.9,58,0.00,,,0.00,WUHU216HW,2013-01-23 06:53:00,
2013-01-23 00:58:00,20.2,7.7,30.34,East,90,0.0,0.9,58,0.00,,,0.00,WUHU216HW,2013-01-23 06:58:00,
2013-01-23 01:03:00,20.2,7.7,30.33,East,90,0.0,0.4,58,0.00,,,0.00,WUHU216HW,2013-01-23 07:03:00,
2013-01-23 01:08:00,20.2,7.7,30.33,East,90,0.0,0.4,58,0.00,,,0.00,WUHU216HW,2013-01-23 07:08:00,
2013-01-23 01:13:00,20.0,7.5,30.33,ESE,113,0.0,0.9,58,0.00,,,0.00,WUHU216HW,2013-01-23 07:13:00,
2013-01-23 01:18:00,19.8,7.8,30.33,ENE,68,0.0,0.9,59,0.00,,,0.00,WUHU216HW,2013-01-23 07:18:00,
2013-01-23 01:23:00,19.8,7.8,30.33,ENE,68,0.0,0.4,59,0.00,,,0.00,WUHU216HW,2013-01-23 07:23:00,
2013-01-23 01:28:00,19.8,7.8,30.33,ENE,68,0.0,0.4,59,0.00,,,0.00,WUHU216HW,2013-01-23 07:28:00,
2013-01-23 01:33:00,19.8,7.8,30.33,East,90,0.0,0.4,59,0.00,,,0.00,WUHU216HW,2013-01-23 07:33:00,
2013-01-23 01:38:00,19.8,7.8,30.32,East,90,0.0,0.4,59,0.00,,,0.00,WUHU216HW,2013-01-23 07:38:00,
2013-01-23 01:43:00,19.6,7.6,30.33,East,90,0.0,0.0,59,0.00,,,0.00,WUHU216HW,2013-01-23 07:43:00,
2013-01-23 01:49:00,19.6,7.9,30.33,East,90,0.4,0.7,60,0.00,,,0.00,WUHU216HW,2013-01-23 07:49:00,
2013-01-23 01:54:00,19.4,7.7,30.33,East,90,0.0,0.7,60,0.00,,,0.00,WUHU216HW,2013-01-23 07:54:00,
2013-01-23 01:59:00,19.4,7.7,30.33,East,90,0.2,0.7,60,0.00,,,0.00,WUHU216HW,2013-01-23 07:59:00,
2013-01-23 02:03:00,19.4,7.7,30.33,ESE,113,0.9,1.3,60,0.00,,,0.00,WUHU216HW,2013-01-23 08:03:00,
2013-01-23 02:08:00,19.3,7.6,30.33,ESE,113,0.0,1.3,60,0.00,,,0.00,WUHU216HW,2013-01-23 08:08:00,
2013-01-23 02:13:00,19.3,7.6,30.33,ESE,113,0.0,0.9,60,0.00,,,0.00,WUHU216HW,2013-01-23 08:13:00,
2013-01-23 02:19:00,19.3,7.9,30.33,ESE,113,0.4,1.1,61,0.00,,,0.00,WUHU216HW,2013-01-23 08:19:00,
2013-01-23 02:24:00,19.3,7.9,30.33,ESE,113,0.0,1.1,61,0.00,,,0.00,WUHU216HW,2013-01-23 08:24:00,
2013-01-23 02:29:00,19.1,7.7,30.33,East,90,0.0,1.1,61,0.00,,,0.00,WUHU216HW,2013-01-23 08:29:00,
2013-01-23 02:34:00,19.1,7.7,30.32,SE,135,1.1,1.1,61,0.00,,,0.00,WUHU216HW,2013-01-23 08:34:00,
2013-01-23 02:39:00,19.1,7.7,30.32,SE,135,0.4,1.1,61,0.00,,,0.00,WUHU216HW,2013-01-23 08:39:00,
2013-01-23 02:44:00,19.1,7.7,30.32,ESE,113,0.4,1.1,61,0.00,,,0.00,WUHU216HW,2013-01-23 08:44:00,
2013-01-23 02:49:00,19.1,7.7,30.32,East,90,0.4,1.1,61,0.00,,,0.00,WUHU216HW,2013-01-23 08:49:00,
2013-01-23 02:54:00,18.9,7.6,30.32,ESE,113,0.0,1.1,61,0.00,,,0.00,WUHU216HW,2013-01-23 08:54:00,
2013-01-23 02:59:00,18.9,7.6,30.32,ESE,113,0.0,1.6,61,0.00,,,0.00,WUHU216HW,2013-01-23 08:59:00,
2013-01-23 03:04:00,18.9,7.6,30.32,ESE,113,0.0,1.6,61,0.00,,,0.00,WUHU216HW,2013-01-23 09:04:00,
2013-01-23 03:09:00,18.7,7.5,30.32,ESE,113,0.0,0.4,61,0.00,,,0.00,WUHU216HW,2013-01-23 09:09:00,
2013-01-23 03:14:00,18.7,7.5,30.31,ESE,113,0.4,0.7,61,0.00,,,0.00,WUHU216HW,2013-01-23 09:14:00,
2013-01-23 03:19:00,18.7,7.5,30.31,ESE,113,0.0,0.7,61,0.00,,,0.00,WUHU216HW,2013-01-23 09:19:00,
2013-01-23 03:24:00,18.5,7.3,30.30,ESE,113,1.1,1.1,61,0.00,,,0.00,WUHU216HW,2013-01-23 09:24:00,
2013-01-23 03:29:00,18.5,7.3,30.30,SE,135,0.9,1.1,61,0.00,,,0.00,WUHU216HW,2013-01-23 09:29:00,
2013-01-23 03:34:00,18.4,7.1,30.30,SE,135,0.0,1.1,61,0.00,,,0.00,WUHU216HW,2013-01-23 09:34:00,
2013-01-23 03:39:00,18.4,7.1,30.30,East,90,0.0,0.9,61,0.00,,,0.00,WUHU216HW,2013-01-23 09:39:00,
2013-01-23 03:44:00,18.4,7.1,30.30,East,90,0.0,0.2,61,0.00,,,0.00,WUHU216HW,2013-01-23 09:44:00,
2013-01-23 03:49:00,18.5,7.3,30.30,East,90,0.0,0.2,61,0.00,,,0.00,WUHU216HW,2013-01-23 09:49:00,
2013-01-23 03:54:00,18.5,7.3,30.30,East,90,0.0,0.0,61,0.00,,,0.00,WUHU216HW,2013-01-23 09:54:00,
2013-01-23 03:59:00,18.4,7.1,30.30,East,90,0.0,0.0,61,0.00,,,0.00,WUHU216HW,2013-01-23 09:59:00,
2013-01-23 04:04:00,18.4,7.5,30.30,East,90,0.0,0.2,62,0.00,,,0.00,WUHU216HW,2013-01-23 10:04:00,
2013-01-23 04:09:00,18.4,7.5,30.30,East,90,0.0,0.2,62,0.00,,,0.00,WUHU216HW,2013-01-23 10:09:00,
2013-01-23 04:14:00,18.4,7.5,30.29,East,90,0.0,0.0,62,0.00,,,0.00,WUHU216HW,2013-01-23 10:14:00,
2013-01-23 04:19:00,18.4,7.5,30.29,East,90,0.0,0.0,62,0.00,,,0.00,WUHU216HW,2013-01-23 10:19:00,
2013-01-23 04:24:00,18.4,7.5,30.29,East,90,0.0,0.0,62,0.00,,,0.00,WUHU216HW,2013-01-23 10:24:00,
2013-01-23 04:29:00,18.4,7.5,30.29,East,90,0.0,0.0,62,0.00,,,0.00,WUHU216HW,2013-01-23 10:29:00,
2013-01-23 04:34:00,18.4,7.5,30.28,East,90,0.0,0.0,62,0.00,,,0.00,WUHU216HW,2013-01-23 10:34:00,
2013-01-23 04:39:00,18.4,7.5,30.30,ESE,113,0.0,0.0,62,0.00,,,0.00,WUHU216HW,2013-01-23 10:39:00,
2013-01-23 04:44:00,18.4,7.5,30.29,SE,135,0.0,0.4,62,0.00,,,0.00,WUHU216HW,2013-01-23 10:44:00,
2013-01-23 04:49:00,18.2,7.3,30.29,SE,135,0.0,0.4,62,0.00,,,0.00,WUHU216HW,2013-01-23 10:49:00,
2013-01-23 04:54:00,18.2,7.3,30.29,SE,135,0.2,0.2,62,0.00,,,0.00,WUHU216HW,2013-01-23 10:54:00,
2013-01-23 04:59:00,18.0,7.5,30.29,SE,135,0.0,0.2,63,0.00,,,0.00,WUHU216HW,2013-01-23 10:59:00,
2013-01-23 05:04:00,18.0,7.5,30.29,East,90,0.0,0.4,63,0.00,,,0.00,WUHU216HW,2013-01-23 11:04:00,
2013-01-23 05:09:00,17.8,7.3,30.30,East,90,1.1,1.1,63,0.00,,,0.00,WUHU216HW,2013-01-23 11:09:00,
2013-01-23 05:14:00,17.8,7.3,30.30,East,90,0.0,1.1,63,0.00,,,0.00,WUHU216HW,2013-01-23 11:14:00,
2013-01-23 05:19:00,17.8,7.3,30.29,East,90,0.0,1.1,63,0.00,,,0.00,WUHU216HW,2013-01-23 11:19:00,
2013-01-23 05:24:00,17.6,7.1,30.30,East,90,0.4,0.4,63,0.00,,,0.00,WUHU216HW,2013-01-23 11:24:00,
2013-01-23 05:29:00,17.6,7.5,30.30,ENE,68,0.0,0.4,64,0.00,,,0.00,WUHU216HW,2013-01-23 11:29:00,
2013-01-23 05:34:00,17.6,7.5,30.30,ENE,68,0.0,0.4,64,0.00,,,0.00,WUHU216HW,2013-01-23 11:34:00,
2013-01-23 05:39:00,17.6,7.5,30.30,East,90,0.0,0.2,64,0.00,,,0.00,WUHU216HW,2013-01-23 11:39:00,
2013-01-23 05:44:00,17.6,7.5,30.30,East,90,0.0,0.0,64,0.00,,,0.00,WUHU216HW,2013-01-23 11:44:00,
2013-01-23 05:49:00,17.6,7.5,30.30,East,90,0.0,0.0,64,0.00,,,0.00,WUHU216HW,2013-01-23 11:49:00,
2013-01-23 05:54:00,17.5,7.3,30.30,East,90,0.0,0.0,64,0.00,,,0.00,WUHU216HW,2013-01-23 11:54:00,
2013-01-23 05:59:00,17.5,7.3,30.30,East,90,0.2,0.4,64,0.00,,,0.00,WUHU216HW,2013-01-23 11:59:00,
2013-01-23 06:04:00,17.3,7.5,30.30,East,90,0.0,0.4,65,0.00,,,0.00,WUHU216HW,2013-01-23 12:04:00,
2013-01-23 06:09:00,17.3,7.5,30.30,East,90,0.0,0.2,65,0.00,,,0.00,WUHU216HW,2013-01-23 12:09:00,
2013-01-23 06:14:00,17.3,7.5,30.31,East,90,0.0,0.2,65,0.00,,,0.00,WUHU216HW,2013-01-23 12:14:00,
2013-01-23 06:19:00,17.3,7.5,30.31,East,90,0.0,0.2,65,0.00,,,0.00,WUHU216HW,2013-01-23 12:19:00,
2013-01-23 06:24:00,17.3,7.5,30.31,East,90,0.0,0.2,65,0.00,,,0.00,WUHU216HW,2013-01-23 12:24:00,
2013-01-23 06:29:00,17.3,7.5,30.31,East,90,0.2,0.2,65,0.00,,,0.00,WUHU216HW,2013-01-23 12:29:00,
2013-01-23 06:34:00,17.3,7.5,30.30,SSE,158,0.4,0.9,65,0.00,,,0.00,WUHU216HW,2013-01-23 12:34:00,
2013-01-23 06:39:00,17.3,7.5,30.30,SSE,158,0.7,1.1,65,0.00,,,0.00,WUHU216HW,2013-01-23 12:39:00,
2013-01-23 06:44:00,17.1,7.3,30.30,SSE,158,0.4,1.3,65,0.00,,,0.00,WUHU216HW,2013-01-23 12:44:00,
2013-01-23 06:49:00,17.3,7.5,30.30,SSE,158,1.8,1.8,65,0.00,,,0.00,WUHU216HW,2013-01-23 12:49:00,
2013-01-23 06:54:00,17.3,7.5,30.30,SE,135,0.7,1.8,65,0.00,,,0.00,WUHU216HW,2013-01-23 12:54:00,
2013-01-23 06:59:00,17.3,7.5,30.29,SE,135,0.4,1.3,65,0.00,,,0.00,WUHU216HW,2013-01-23 12:59:00,
2013-01-23 07:04:00,17.3,7.5,30.29,SE,135,0.4,1.8,65,0.00,,,0.00,WUHU216HW,2013-01-23 13:04:00,
2013-01-23 07:09:00,17.3,7.5,30.29,SE,135,0.0,1.8,65,0.00,,,0.00,WUHU216HW,2013-01-23 13:09:00,
2013-01-23 07:14:00,17.3,7.5,30.30,SE,135,0.0,1.3,65,0.00,,,0.00,WUHU216HW,2013-01-23 13:14:00,
2013-01-23 07:19:00,17.5,7.7,30.30,SSE,158,0.0,0.7,65,0.00,,,0.00,WUHU216HW,2013-01-23 13:19:00,
2013-01-23 07:24:00,17.5,7.7,30.30,SSE,158,0.2,1.1,65,0.00,,,0.00,WUHU216HW,2013-01-23 13:24:00,
2013-01-23 07:29:00,17.5,7.7,30.30,South,180,0.2,1.8,65,0.00,,,0.00,WUHU216HW,2013-01-23 13:29:00,
2013-01-23 07:34:00,17.6,7.8,30.30,SSW,203,0.4,1.8,65,0.00,,,0.00,WUHU216HW,2013-01-23 13:34:00,
2013-01-23 07:39:00,17.6,8.2,30.30,SW,225,0.0,1.8,66,0.00,,,0.00,WUHU216HW,2013-01-23 13:39:00,
2013-01-23 07:44:00,17.6,8.2,30.30,SSW,203,0.0,1.6,66,0.00,,,0.00,WUHU216HW,2013-01-23 13:44:00,
2013-01-23 07:49:00,17.8,8.4,30.30,South,180,0.4,1.3,66,0.00,,,0.00,WUHU216HW,2013-01-23 13:49:00,
2013-01-23 07:54:00,18.0,8.5,30.30,SW,225,0.4,1.3,66,0.00,,,0.00,WUHU216HW,2013-01-23 13:54:00,
2013-01-23 07:59:00,18.2,8.6,30.30,SSW,203,0.0,1.1,66,0.00,,,0.00,WUHU216HW,2013-01-23 13:59:00,
2013-01-23 08:04:00,18.2,8.6,30.31,SW,225,1.1,1.1,66,0.00,,,0.00,WUHU216HW,2013-01-23 14:04:00,
2013-01-23 08:09:00,18.4,8.8,30.30,SSW,203,0.0,1.1,66,0.00,,,0.00,WUHU216HW,2013-01-23 14:09:00,
2013-01-23 08:14:00,18.4,8.8,30.30,SSE,158,1.1,1.1,66,0.00,,,0.00,WUHU216HW,2013-01-23 14:14:00,
2013-01-23 08:19:00,18.7,9.2,30.29,SSE,158,1.3,2.9,66,0.00,,,0.00,WUHU216HW,2013-01-23 14:19:00,
2013-01-23 08:24:00,18.7,9.2,30.29,SSE,158,1.1,3.1,66,0.00,,,0.00,WUHU216HW,2013-01-23 14:24:00,
2013-01-23 08:29:00,19.1,9.5,30.28,SSE,158,3.6,3.6,66,0.00,,,0.00,WUHU216HW,2013-01-23 14:29:00,
2013-01-23 08:34:00,19.1,9.5,30.29,SW,225,0.7,3.6,66,0.00,,,0.00,WUHU216HW,2013-01-23 14:34:00,
2013-01-23 08:39:00,19.6,10.0,30.29,SSE,158,2.5,3.6,66,0.00,,,0.00,WUHU216HW,2013-01-23 14:39:00,
2013-01-23 08:44:00,20.0,10.4,30.29,SSW,203,2.0,3.4,66,0.00,,,0.00,WUHU216HW,2013-01-23 14:44:00,
2013-01-23 08:49:00,20.2,10.5,30.29,SSE,158,2.5,3.1,66,0.00,,,0.00,WUHU216HW,2013-01-23 14:49:00,
2013-01-23 08:54:00,20.5,10.9,30.29,SSE,158,1.6,2.9,66,0.00,,,0.00,WUHU216HW,2013-01-23 14:54:00,
2013-01-23 08:59:00,20.9,11.3,30.29,SSW,203,2.0,2.9,66,0.00,,,0.00,WUHU216HW,2013-01-23 14:59:00,
2013-01-23 09:04:00,21.2,11.6,30.29,SSE,158,1.8,2.9,66,0.00,,,0.00,WUHU216HW,2013-01-23 15:04:00,
2013-01-23 09:09:00,21.8,12.2,30.29,SSW,203,3.6,4.5,66,0.00,,,0.00,WUHU216HW,2013-01-23 15:09:00,
2013-01-23 09:14:00,22.1,12.8,30.29,South,180,1.3,4.5,67,0.00,,,0.00,WUHU216HW,2013-01-23 15:14:00,
2013-01-23 09:19:00,22.7,13.0,30.29,SW,225,2.9,4.3,66,0.00,,,0.00,WUHU216HW,2013-01-23 15:19:00,
2013-01-23 09:24:00,23.2,13.5,30.28,South,180,1.8,3.8,66,0.00,,,0.00,WUHU216HW,2013-01-23 15:24:00,
2013-01-23 09:29:00,23.6,13.9,30.28,SW,225,1.8,4.0,66,0.00,,,0.00,WUHU216HW,2013-01-23 15:29:00,
2013-01-23 09:34:00,24.1,14.3,30.28,SSE,158,2.9,4.0,66,0.00,,,0.00,WUHU216HW,2013-01-23 15:34:00,
2013-01-23 09:39:00,24.7,14.9,30.28,SSW,203,2.7,4.0,66,0.00,,,0.00,WUHU216HW,2013-01-23 15:39:00,
2013-01-23 09:44:00,25.0,15.2,30.29,SE,135,1.1,4.0,66,0.00,,,0.00,WUHU216HW,2013-01-23 15:44:00,
2013-01-23 09:49:00,25.6,15.7,30.29,South,180,0.7,3.4,66,0.00,,,0.00,WUHU216HW,2013-01-23 15:49:00,
2013-01-23 09:54:00,26.3,16.4,30.29,WSW,248,1.6,4.7,66,0.00,,,0.00,WUHU216HW,2013-01-23 15:54:00,
2013-01-23 09:59:00,26.6,16.4,30.29,WSW,248,2.0,4.7,65,0.00,,,0.00,WUHU216HW,2013-01-23 15:59:00,
2013-01-23 10:04:00,27.4,17.1,30.30,SW,225,0.2,4.3,65,0.00,,,0.00,WUHU216HW,2013-01-23 16:04:00,
2013-01-23 10:09:00,27.7,17.5,30.30,West,270,0.2,2.7,65,0.00,,,0.00,WUHU216HW,2013-01-23 16:09:00,
2013-01-23 10:14:00,28.4,17.8,30.30,SW,225,2.0,2.9,64,0.00,,,0.00,WUHU216HW,2013-01-23 16:14:00,
2013-01-23 10:19:00,29.0,18.3,30.30,SW,225,1.1,3.8,64,0.00,,,0.00,WUHU216HW,2013-01-23 16:19:00,
2013-01-23 10:24:00,29.5,19.2,30.30,WSW,248,1.8,3.8,65,0.00,,,0.00,WUHU216HW,2013-01-23 16:24:00,
2013-01-23 10:29:00,30.1,19.6,30.30,South,180,0.2,2.5,65,0.00,,,0.00,WUHU216HW,2013-01-23 16:29:00,
2013-01-23 10:34:00,30.6,19.8,30.30,South,180,0.0,2.7,64,0.00,,,0.00,WUHU216HW,2013-01-23 16:34:00,
2013-01-23 10:39:00,31.0,20.2,30.30,NNW,338,1.8,2.7,64,0.00,,,0.00,WUHU216HW,2013-01-23 16:39:00,
2013-01-23 10:44:00,31.5,20.3,30.31,NNE,23,0.0,2.9,63,0.00,,,0.00,WUHU216HW,2013-01-23 16:44:00,
2013-01-23 10:49:00,32.0,20.9,30.31,WNW,293,0.7,2.9,63,0.00,,,0.00,WUHU216HW,2013-01-23 16:49:00,
2013-01-23 10:54:00,32.6,21.0,30.31,WSW,248,1.3,4.3,62,0.00,,,0.00,WUHU216HW,2013-01-23 16:54:00,
2013-01-23 10:59:00,33.1,21.5,30.31,NNW,338,1.8,4.3,62,0.00,,,0.00,WUHU216HW,2013-01-23 16:59:00,
2013-01-23 11:04:00,33.7,22.0,30.31,WSW,248,1.8,3.1,62,0.00,,,0.00,WUHU216HW,2013-01-23 17:04:00,
2013-01-23 11:09:00,34.2,22.5,30.31,NNE,23,0.4,4.0,62,0.00,,,0.00,WUHU216HW,2013-01-23 17:09:00,
2013-01-23 11:14:00,34.6,22.5,30.31,West,270,5.1,5.1,61,0.00,,,0.00,WUHU216HW,2013-01-23 17:14:00,
2013-01-23 11:19:00,35.1,23.0,30.31,West,270,3.4,5.1,61,0.00,,,0.00,WUHU216HW,2013-01-23 17:19:00,
2013-01-23 11:24:00,35.5,23.0,30.31,NW,315,1.6,5.1,60,0.00,,,0.00,WUHU216HW,2013-01-23 17:24:00,
2013-01-23 11:29:00,35.8,23.4,30.30,SW,225,1.8,3.8,60,0.00,,,0.00,WUHU216HW,2013-01-23 17:29:00,
2013-01-23 11:34:00,36.4,23.9,30.30,NNW,338,1.1,3.1,60,0.00,,,0.00,WUHU216HW,2013-01-23 17:34:00,
2013-01-23 11:39:00,36.9,24.4,30.30,WSW,248,1.8,2.9,60,0.00,,,0.00,WUHU216HW,2013-01-23 17:39:00,
2013-01-23 11:44:00,37.4,24.4,30.30,WSW,248,1.8,5.8,59,0.00,,,0.00,WUHU216HW,2013-01-23 17:44:00,
2013-01-23 11:49:00,38.0,24.9,30.30,West,270,3.4,5.8,59,0.00,,,0.00,WUHU216HW,2013-01-23 17:49:00,
2013-01-23 11:54:00,38.5,24.9,30.30,SSE,158,2.9,5.8,58,0.00,,,0.00,WUHU216HW,2013-01-23 17:54:00,
2013-01-23 11:59:00,39.1,25.5,30.30,WSW,248,3.1,6.5,58,0.00,,,0.00,WUHU216HW,2013-01-23 17:59:00,
2013-01-23 12:04:00,39.6,25.5,30.29,WSW,248,3.8,6.5,57,0.00,,,0.00,WUHU216HW,2013-01-23 18:04:00,
2013-01-23 12:09:00,40.0,25.8,30.29,North,0,2.5,6.3,57,0.00,,,0.00,WUHU216HW,2013-01-23 18:09:00,
2013-01-23 12:14:00,40.3,25.7,30.29,West,270,1.1,5.1,56,0.00,,,0.00,WUHU216HW,2013-01-23 18:14:00,
2013-01-23 12:19:00,40.7,26.1,30.28,NW,315,2.5,6.3,56,0.00,,,0.00,WUHU216HW,2013-01-23 18:19:00,
2013-01-23 12:24:00,40.9,25.8,30.28,SW,225,2.5,6.9,55,0.00,,,0.00,WUHU216HW,2013-01-23 18:24:00,
2013-01-23 12:29:00,41.2,26.2,30.28,SW,225,3.6,6.9,55,0.00,,,0.00,WUHU216HW,2013-01-23 18:29:00,
2013-01-23 12:34:00,41.4,25.9,30.28,WSW,248,2.7,6.3,54,0.00,,,0.00,WUHU216HW,2013-01-23 18:34:00,
2013-01-23 12:39:00,41.8,26.3,30.27,WSW,248,3.4,4.7,54,0.00,,,0.00,WUHU216HW,2013-01-23 18:39:00,
2013-01-23 12:44:00,42.1,26.7,30.27,NNW,338,2.0,4.5,54,0.00,,,0.00,WUHU216HW,2013-01-23 18:44:00,
2013-01-23 12:49:00,42.3,26.4,30.27,NNW,338,2.5,5.8,53,0.00,,,0.00,WUHU216HW,2013-01-23 18:49:00,
2013-01-23 12:54:00,42.7,26.6,30.28,NW,315,2.9,5.8,53,0.00,,,0.00,WUHU216HW,2013-01-23 18:54:00,
2013-01-23 12:59:00,42.8,26.8,30.27,North,0,1.8,5.4,53,0.00,,,0.00,WUHU216HW,2013-01-23 18:59:00,
2013-01-23 13:04:00,43.0,27.0,30.27,NNW,338,2.2,7.2,53,0.00,,,0.00,WUHU216HW,2013-01-23 19:04:00,
2013-01-23 13:09:00,43.4,26.9,30.27,WSW,248,4.9,7.2,52,0.00,,,0.00,WUHU216HW,2013-01-23 19:09:00,
2013-01-23 13:14:00,43.7,27.3,30.26,NNW,338,2.0,7.6,52,0.00,,,0.00,WUHU216HW,2013-01-23 19:14:00,
2013-01-23 13:19:00,43.9,27.0,30.26,NNW,338,2.0,7.6,51,0.00,,,0.00,WUHU216HW,2013-01-23 19:19:00,
2013-01-23 13:24:00,44.3,27.3,30.27,NNW,338,2.7,4.7,51,0.00,,,0.00,WUHU216HW,2013-01-23 19:24:00,
2013-01-23 13:29:00,44.3,27.3,30.27,NNW,338,2.9,4.7,51,0.00,,,0.00,WUHU216HW,2013-01-23 19:29:00,
2013-01-23 13:34:00,44.6,27.2,30.26,NNW,338,1.8,6.3,50,0.00,,,0.00,WUHU216HW,2013-01-23 19:34:00,
2013-01-23 13:39:00,44.8,27.4,30.27,NW,315,2.9,6.3,50,0.00,,,0.00,WUHU216HW,2013-01-23 19:39:00,
2013-01-23 13:44:00,45.0,27.0,30.27,NW,315,2.9,5.6,49,0.00,,,0.00,WUHU216HW,2013-01-23 19:44:00,
2013-01-23 13:49:00,45.2,27.1,30.27,WSW,248,4.5,5.6,49,0.00,,,0.00,WUHU216HW,2013-01-23 19:49:00,
2013-01-23 13:54:00,45.4,26.7,30.27,NW,315,5.4,6.7,48,0.00,,,0.00,WUHU216HW,2013-01-23 19:54:00,
2013-01-23 13:59:00,45.4,26.7,30.27,North,0,2.7,6.7,48,0.00,,,0.00,WUHU216HW,2013-01-23 19:59:00,
2013-01-23 14:04:00,45.4,26.7,30.26,NNW,338,2.9,5.4,48,0.00,,,0.00,WUHU216HW,2013-01-23 20:04:00,
2013-01-23 14:09:00,45.5,26.4,30.26,NW,315,2.9,5.4,47,0.00,,,0.00,WUHU216HW,2013-01-23 20:09:00,
2013-01-23 14:14:00,45.5,26.4,30.26,North,0,1.8,5.4,47,0.00,,,0.00,WUHU216HW,2013-01-23 20:14:00,
2013-01-23 14:19:00,45.7,26.6,30.27,NW,315,3.8,4.9,47,0.00,,,0.00,WUHU216HW,2013-01-23 20:19:00,
2013-01-23 14:24:00,45.7,26.6,30.26,WNW,293,6.5,6.5,47,0.00,,,0.00,WUHU216HW,2013-01-23 20:24:00,
2013-01-23 14:29:00,45.9,26.7,30.26,North,0,4.3,6.5,47,0.00,,,0.00,WUHU216HW,2013-01-23 20:29:00,
2013-01-23 14:34:00,45.9,26.2,30.26,West,270,5.8,6.5,46,0.00,,,0.00,WUHU216HW,2013-01-23 20:34:00,
2013-01-23 14:39:00,46.1,26.3,30.26,NE,45,1.3,6.3,46,0.00,,,0.00,WUHU216HW,2013-01-23 20:39:00,
2013-01-23 14:44:00,46.1,26.3,30.26,NNW,338,1.8,9.2,46,0.00,,,0.00,WUHU216HW,2013-01-23 20:44:00,
2013-01-23 14:49:00,46.1,26.3,30.26,NW,315,3.6,9.2,46,0.00,,,0.00,WUHU216HW,2013-01-23 20:49:00,
2013-01-23 14:54:00,46.3,26.5,30.26,NNW,338,3.1,5.6,46,0.00,,,0.00,WUHU216HW,2013-01-23 20:54:00,
2013-01-23 14:59:00,46.3,25.9,30.26,NNW,338,2.9,5.4,45,0.00,,,0.00,WUHU216HW,2013-01-23 20:59:00,
2013-01-23 15:04:00,46.3,25.4,30.26,NW,315,0.7,8.1,44,0.00,,,0.00,WUHU216HW,2013-01-23 21:04:00,
2013-01-23 15:09:00,46.4,26.1,30.25,NNW,338,2.5,8.1,45,0.00,,,0.00,WUHU216HW,2013-01-23 21:09:00,
2013-01-23 15:14:00,46.4,26.1,30.26,North,0,2.9,3.4,45,0.00,,,0.00,WUHU216HW,2013-01-23 21:14:00,
2013-01-23 15:19:00,46.4,26.1,30.26,North,0,4.5,5.1,45,0.00,,,0.00,WUHU216HW,2013-01-23 21:19:00,
2013-01-23 15:24:00,46.4,25.6,30.26,NNW,338,1.8,6.3,44,0.00,,,0.00,WUHU216HW,2013-01-23 21:24:00,
2013-01-23 15:29:00,46.4,25.6,30.26,NW,315,4.3,6.3,44,0.00,,,0.00,WUHU216HW,2013-01-23 21:29:00,
2013-01-23 15:34:00,46.4,25.6,30.26,East,90,3.4,6.7,44,0.00,,,0.00,WUHU216HW,2013-01-23 21:34:00,
2013-01-23 15:39:00,46.4,25.6,30.26,NNE,23,5.4,6.7,44,0.00,,,0.00,WUHU216HW,2013-01-23 21:39:00,
2013-01-23 15:44:00,46.4,25.6,30.26,ENE,68,1.6,5.4,44,0.00,,,0.00,WUHU216HW,2013-01-23 21:44:00,
2013-01-23 15:49:00,46.4,25.6,30.26,North,0,6.3,6.9,44,0.00,,,0.00,WUHU216HW,2013-01-23 21:49:00,
2013-01-23 15:54:00,46.3,25.4,30.27,North,0,4.0,7.8,44,0.00,,,0.00,WUHU216HW,2013-01-23 21:54:00,
2013-01-23 15:59:00,46.1,25.2,30.27,NNE,23,5.4,7.8,44,0.00,,,0.00,WUHU216HW,2013-01-23 21:59:00,
2013-01-23 16:04:00,46.1,25.2,30.28,NNW,338,1.1,5.4,44,0.00,,,0.00,WUHU216HW,2013-01-23 22:04:00,
2013-01-23 16:09:00,46.1,25.2,30.28,NNW,338,3.4,4.7,44,0.00,,,0.00,WUHU216HW,2013-01-23 22:09:00,
2013-01-23 16:14:00,45.9,25.1,30.28,NNW,338,3.8,7.2,44,0.00,,,0.00,WUHU216HW,2013-01-23 22:14:00,
2013-01-23 16:19:00,45.7,24.9,30.27,West,270,3.6,8.5,44,0.00,,,0.00,WUHU216HW,2013-01-23 22:19:00,
2013-01-23 16:24:00,45.7,24.9,30.27,NE,45,1.1,8.5,44,0.00,,,0.00,WUHU216HW,2013-01-23 22:24:00,
2013-01-23 16:26:00,45.7,24.9,30.28,NNW,338,2.0,2.0,44,0.00,,,0.00,WUHU216HW,2013-01-23 22:26:00,
2013-01-23 16:29:00,45.7,24.9,30.28,NNW,338,2.0,3.6,44,0.00,,,0.00,WUHU216HW,2013-01-23 22:29:00,
2013-01-23 16:34:00,45.7,24.9,30.28,NNW,338,2.0,2.9,44,0.00,,,0.00,WUHU216HW,2013-01-23 22:34:00,
2013-01-23 17:00:00,44.6,23.9,30.28,North,0,0.9,0.9,44,0.00,,,0.00,WUHU216HW,2013-01-23 23:00:00,
2013-01-23 17:05:00,44.6,23.9,30.28,North,0,0.9,0.9,44,0.00,,,0.00,WUHU216HW,2013-01-23 23:05:00,
2013-01-23 18:00:00,41.8,22.9,30.33,NNE,23,0.9,0.9,47,0.00,,,0.00,WUHU216HW,2013-01-24 00:00:00,
2013-01-23 18:05:00,41.4,22.5,30.33,NNW,338,1.8,4.7,47,0.00,,,0.00,WUHU216HW,2013-01-24 00:05:00,
2013-01-23 18:10:00,41.2,22.4,30.33,NNW,338,1.8,7.2,47,0.00,,,0.00,WUHU216HW,2013-01-24 00:10:00,
2013-01-23 18:15:00,41.0,22.2,30.33,North,0,2.5,7.2,47,0.00,,,0.00,WUHU216HW,2013-01-24 00:15:00,
2013-01-23 18:20:00,40.7,21.9,30.33,NNW,338,0.9,10.1,47,0.00,,,0.00,WUHU216HW,2013-01-24 00:20:00,
2013-01-23 18:25:00,40.5,21.7,30.34,NNW,338,1.1,10.1,47,0.00,,,0.00,WUHU216HW,2013-01-24 00:25:00,
2013-01-23 18:26:00,40.5,21.7,30.34,NNE,23,5.4,8.9,47,0.00,,,0.00,WUHU216HW,2013-01-24 00:26:00,
2013-01-23 18:30:00,40.5,21.7,30.34,NNE,23,5.4,8.9,47,0.00,,,0.00,WUHU216HW,2013-01-24 00:30:00,
2013-01-23 18:35:00,40.5,21.7,30.34,NNE,23,5.4,8.9,47,0.00,,,0.00,WUHU216HW,2013-01-24 00:35:00,
2013-01-23 19:00:00,39.2,21.1,30.36,North,0,4.7,4.7,48,0.00,,,0.00,WUHU216HW,2013-01-24 01:00:00,
2013-01-23 19:05:00,38.9,20.8,30.36,North,0,3.4,8.1,48,0.00,,,0.00,WUHU216HW,2013-01-24 01:05:00,
2013-01-23 19:10:00,38.7,20.6,30.35,NE,45,4.0,8.1,48,0.00,,,0.00,WUHU216HW,2013-01-24 01:10:00,
2013-01-23 19:15:00,38.5,20.4,30.36,NNW,338,5.6,9.6,48,0.00,,,0.00,WUHU216HW,2013-01-24 01:15:00,
2013-01-23 19:20:00,38.2,20.6,30.36,North,0,6.0,9.6,49,0.00,,,0.00,WUHU216HW,2013-01-24 01:20:00,
2013-01-23 19:25:00,37.8,20.4,30.36,North,0,4.5,8.1,49,0.00,,,0.00,WUHU216HW,2013-01-24 01:25:00,
2013-01-23 19:30:00,37.6,20.2,30.36,North,0,4.9,7.4,49,0.00,,,0.00,WUHU216HW,2013-01-24 01:30:00,
2013-01-23 19:35:00,37.3,19.8,30.36,North,0,3.6,7.4,49,0.00,,,0.00,WUHU216HW,2013-01-24 01:35:00,
2013-01-23 19:40:00,37.1,20.2,30.37,NE,45,5.6,5.6,50,0.00,,,0.00,WUHU216HW,2013-01-24 01:40:00,
2013-01-23 19:45:00,36.7,19.9,30.37,NNW,338,2.5,10.5,50,0.00,,,0.00,WUHU216HW,2013-01-24 01:45:00,
2013-01-23 19:50:00,36.7,19.9,30.38,North,0,1.6,10.5,50,0.00,,,0.00,WUHU216HW,2013-01-24 01:50:00,
2013-01-23 19:55:00,36.4,19.5,30.38,North,0,3.6,5.6,50,0.00,,,0.00,WUHU216HW,2013-01-24 01:55:00,
2013-01-23 20:00:00,36.4,19.5,30.38,North,0,0.4,5.1,50,0.00,,,0.00,WUHU216HW,2013-01-24 02:00:00,
2013-01-23 20:05:00,36.0,19.6,30.38,NNW,338,1.8,6.5,51,0.00,,,0.00,WUHU216HW,2013-01-24 02:05:00,
2013-01-23 20:10:00,35.6,19.4,30.39,North,0,3.4,6.5,51,0.00,,,0.00,WUHU216HW,2013-01-24 02:10:00,
2013-01-23 20:15:00,35.5,19.2,30.39,NNW,338,4.9,5.1,51,0.00,,,0.00,WUHU216HW,2013-01-24 02:15:00,
2013-01-23 20:20:00,35.3,19.0,30.39,NW,315,1.6,6.9,51,0.00,,,0.00,WUHU216HW,2013-01-24 02:20:00,
2013-01-23 20:25:00,35.1,18.8,30.38,SE,135,1.6,6.9,51,0.00,,,0.00,WUHU216HW,2013-01-24 02:25:00,
2013-01-23 20:30:00,34.9,18.6,30.39,NNE,23,6.0,6.3,51,0.00,,,0.00,WUHU216HW,2013-01-24 02:30:00,
2013-01-23 20:35:00,34.7,18.5,30.40,NE,45,9.8,9.8,51,0.00,,,0.00,WUHU216HW,2013-01-24 02:35:00,
2013-01-23 20:40:00,34.6,18.3,30.41,North,0,7.2,11.2,51,0.00,,,0.00,WUHU216HW,2013-01-24 02:40:00,
2013-01-23 20:45:00,34.4,18.1,30.41,NNE,23,4.7,11.2,51,0.00,,,0.00,WUHU216HW,2013-01-24 02:45:00,
2013-01-23 20:50:00,34.2,17.9,30.41,NNE,23,2.5,9.8,51,0.00,,,0.00,WUHU216HW,2013-01-24 02:50:00,
2013-01-23 20:55:00,34.0,17.7,30.41,NNW,338,3.4,12.5,51,0.00,,,0.00,WUHU216HW,2013-01-24 02:55:00,
2013-01-23 21:00:00,33.7,17.4,30.41,North,0,4.7,12.5,51,0.00,,,0.00,WUHU216HW,2013-01-24 03:00:00,
2013-01-23 21:05:00,33.5,17.2,30.42,NE,45,4.3,8.7,51,0.00,,,0.00,WUHU216HW,2013-01-24 03:05:00,
2013-01-23 21:10:00,33.1,16.9,30.42,NNW,338,5.4,8.7,51,0.00,,,0.00,WUHU216HW,2013-01-24 03:10:00,
2013-01-23 21:15:00,32.9,16.8,30.42,NE,45,10.3,10.3,51,0.00,,,0.00,WUHU216HW,2013-01-24 03:15:00,
2013-01-23 21:20:00,32.8,16.6,30.42,ENE,68,3.6,10.3,51,0.00,,,0.00,WUHU216HW,2013-01-24 03:20:00,
2013-01-23 21:25:00,32.4,16.2,30.42,NE,45,2.5,10.3,51,0.00,,,0.00,WUHU216HW,2013-01-24 03:25:00,
2013-01-23 21:30:00,32.2,16.1,30.42,North,0,4.7,9.4,51,0.00,,,0.00,WUHU216HW,2013-01-24 03:30:00,
2013-01-23 21:35:00,32.0,15.9,30.43,NNW,338,7.4,9.4,51,0.00,,,0.00,WUHU216HW,2013-01-24 03:35:00,
2013-01-23 21:40:00,31.9,16.2,30.43,North,0,2.9,7.4,52,0.00,,,0.00,WUHU216HW,2013-01-24 03:40:00,
2013-01-23 21:45:00,31.5,15.8,30.43,NNE,23,6.3,7.6,52,0.00,,,0.00,WUHU216HW,2013-01-24 03:45:00,
2013-01-23 21:50:00,31.3,15.7,30.44,North,0,1.8,7.6,52,0.00,,,0.00,WUHU216HW,2013-01-24 03:50:00,
2013-01-23 21:55:00,31.1,15.5,30.44,North,0,4.0,11.4,52,0.00,,,0.00,WUHU216HW,2013-01-24 03:55:00,
2013-01-23 22:00:00,31.0,15.4,30.44,NNE,23,2.9,11.4,52,0.00,,,0.00,WUHU216HW,2013-01-24 04:00:00,
2013-01-23 22:05:00,30.8,15.2,30.44,North,0,6.7,9.6,52,0.00,,,0.00,WUHU216HW,2013-01-24 04:05:00,
2013-01-23 22:10:00,30.6,15.0,30.44,NNE,23,2.5,7.2,52,0.00,,,0.00,WUHU216HW,2013-01-24 04:10:00,
2013-01-23 22:15:00,30.6,15.0,30.44,NNE,23,5.1,7.2,52,0.00,,,0.00,WUHU216HW,2013-01-24 04:15:00,
2013-01-23 22:20:00,30.2,15.1,30.45,NNW,338,3.8,9.6,53,0.00,,,0.00,WUHU216HW,2013-01-24 04:20:00,
2013-01-23 22:25:00,30.2,15.1,30.45,NE,45,1.8,9.6,53,0.00,,,0.00,WUHU216HW,2013-01-24 04:25:00,
2013-01-23 22:30:00,30.1,14.9,30.45,NNE,23,5.6,7.8,53,0.00,,,0.00,WUHU216HW,2013-01-24 04:30:00,
2013-01-23 22:35:00,29.9,14.8,30.45,NNW,338,11.2,11.2,53,0.00,,,0.00,WUHU216HW,2013-01-24 04:35:00,
2013-01-23 22:40:00,29.7,14.6,30.45,NNE,23,4.7,11.2,53,0.00,,,0.00,WUHU216HW,2013-01-24 04:40:00,
2013-01-23 22:45:00,29.5,14.5,30.45,NNE,23,1.8,11.6,53,0.00,,,0.00,WUHU216HW,2013-01-24 04:45:00,
2013-01-23 22:50:00,29.5,14.5,30.45,NNE,23,2.9,11.6,53,0.00,,,0.00,WUHU216HW,2013-01-24 04:50:00,
2013-01-23 22:55:00,29.2,14.1,30.45,NE,45,5.1,6.0,53,0.00,,,0.00,WUHU216HW,2013-01-24 04:55:00,
2013-01-23 23:00:00,29.2,14.1,30.45,North,0,1.6,6.0,53,0.00,,,0.00,WUHU216HW,2013-01-24 05:00:00,
2013-01-23 23:01:00,29.2,14.1,30.45,NNE,23,1.8,6.0,53,0.00,,,0.00,WUHU216HW,2013-01-24 05:01:00,
2013-01-23 23:03:00,29.2,14.1,30.45,North,0,2.5,6.0,53,0.00,,,0.00,WUHU216HW,2013-01-24 05:03:00,
2013-01-23 23:08:00,29.0,14.0,30.45,NE,45,1.8,6.3,53,0.00,,,0.00,WUHU216HW,2013-01-24 05:08:00,
2013-01-23 23:13:00,28.8,14.2,30.45,North,0,2.7,6.3,54,0.00,,,0.00,WUHU216HW,2013-01-24 05:13:00,
2013-01-23 23:18:00,28.6,14.0,30.46,NE,45,1.1,5.1,54,0.00,,,0.00,WUHU216HW,2013-01-24 05:18:00,
2013-01-23 23:23:00,28.4,13.9,30.46,NE,45,4.0,5.1,54,0.00,,,0.00,WUHU216HW,2013-01-24 05:23:00,
2013-01-23 23:28:00,28.4,13.9,30.47,NNW,338,3.6,6.5,54,0.00,,,0.00,WUHU216HW,2013-01-24 05:28:00,
2013-01-23 23:33:00,28.3,13.7,30.48,North,0,1.8,6.5,54,0.00,,,0.00,WUHU216HW,2013-01-24 05:33:00,
2013-01-23 23:38:00,28.1,14.0,30.48,ENE,68,2.5,5.8,55,0.00,,,0.00,WUHU216HW,2013-01-24 05:38:00,
2013-01-23 23:43:00,27.9,13.8,30.48,NNE,23,2.2,9.2,55,0.00,,,0.00,WUHU216HW,2013-01-24 05:43:00,
2013-01-23 23:48:00,27.7,13.6,30.47,NE,45,4.7,9.2,55,0.00,,,0.00,WUHU216HW,2013-01-24 05:48:00,
2013-01-23 23:53:00,27.7,14.1,30.48,NE,45,1.6,4.7,56,0.00,,,0.00,WUHU216HW,2013-01-24 05:53:00,
2013-01-23 23:58:00,27.5,13.4,30.48,NE,45,2.0,4.7,55,0.00,,,0.00,WUHU216HW,2013-01-24 05:58:00,